Time,TemperatureF,DewpointF,PressureIn,WindDirection,WindDirectionDegrees,WindSpeedMPH,WindSpeedGustMPH,Humidity,HourlyPrecipIn,Conditions,Clouds,dailyrainin,SoftwareType,DateUTC
2013-01-13 00:03:00,71.2,68.8,29.88,SSW,194,0.0,9.0,92,0.00,,OVC032,0.00,VWS V14.01,2013-01-13 06:03:00,
2013-01-13 00:08:00,71.2,68.8,29.88,South,184,0.0,10.5,92,0.00,,OVC032,0.00,VWS V14.01,2013-01-13 06:08:00,
2013-01-13 00:13:00,71.2,68.8,29.88,SSW,209,4.5,9.0,92,0.00,,OVC032,0.00,VWS V14.01,2013-01-13 06:13:00,
2013-01-13 00:18:00,71.3,68.9,29.88,SSW,193,4.5,4.5,92,0.00,,OVC032,0.00,VWS V14.01,2013-01-13 06:18:00,
2013-01-13 00:23:00,71.2,68.8,29.88,South,184,0.0,7.5,92,0.00,,OVC032,0.00,VWS V14.01,2013-01-13 06:23:00,
2013-01-13 00:28:00,71.3,69.2,29.88,SSW,205,4.5,7.5,93,0.00,,OVC032,0.00,VWS V14.01,2013-01-13 06:28:00,
2013-01-13 00:33:00,71.3,68.9,29.88,SSW,196,4.5,7.5,92,0.00,,OVC032,0.00,VWS V14.01,2013-01-13 06:33:00,
2013-01-13 00:38:00,71.4,69.0,29.88,SSW,194,3.0,9.0,92,0.00,,OVC032,0.00,VWS V14.01,2013-01-13 06:38:00,
2013-01-13 00:43:00,71.4,69.0,29.88,SSW,204,0.0,7.5,92,0.00,,OVC032,0.00,VWS V14.01,2013-01-13 06:43:00,
2013-01-13 00:48:00,71.5,69.1,29.88,SSW,194,4.5,6.0,92,0.00,,OVC032,0.00,VWS V14.01,2013-01-13 06:48:00,
2013-01-13 00:53:00,71.5,69.1,29.87,South,186,3.0,9.0,92,0.00,,OVC034,0.00,VWS V14.01,2013-01-13 06:53:00,
2013-01-13 00:58:00,71.5,69.1,29.87,SW,224,6.0,10.5,92,0.00,,OVC034,0.00,VWS V14.01,2013-01-13 06:58:00,
2013-01-13 01:03:00,71.6,69.2,29.88,SSW,193,9.0,13.5,92,0.00,,OVC028,0.00,VWS V14.01,2013-01-13 07:03:00,
2013-01-13 01:08:00,71.7,69.3,29.87,SSW,213,7.5,9.0,92,0.00,,OVC028,0.00,VWS V14.01,2013-01-13 07:08:00,
2013-01-13 01:13:00,71.6,69.2,29.87,SSW,193,4.5,10.5,92,0.00,,OVC030,0.00,VWS V14.01,2013-01-13 07:13:00,
2013-01-13 01:18:00,71.6,69.2,29.87,SSE,149,1.5,7.5,92,0.00,,OVC030,0.00,VWS V14.01,2013-01-13 07:18:00,
2013-01-13 01:23:00,71.5,69.1,29.87,SSW,200,3.0,10.5,92,0.00,,OVC030,0.00,VWS V14.01,2013-01-13 07:23:00,
2013-01-13 01:28:00,71.5,69.1,29.87,South,176,4.5,10.5,92,0.00,,OVC030,0.00,VWS V14.01,2013-01-13 07:28:00,
2013-01-13 01:33:00,71.5,69.1,29.87,SW,225,7.5,9.0,92,0.00,,OVC030,0.00,VWS V14.01,2013-01-13 07:33:00,
2013-01-13 01:38:00,71.5,69.1,29.87,SSW,202,7.5,7.5,92,0.00,,OVC030,0.00,VWS V14.01,2013-01-13 07:38:00,
2013-01-13 01:43:00,71.5,69.1,29.87,South,177,4.5,10.5,92,0.00,,OVC030,0.00,VWS V14.01,2013-01-13 07:43:00,
2013-01-13 01:48:00,71.5,69.1,29.87,SSW,205,6.0,10.5,92,0.00,,OVC030,0.00,VWS V14.01,2013-01-13 07:48:00,
2013-01-13 01:53:00,71.4,69.0,29.87,SSW,203,6.0,6.0,92,0.00,,OVC034,0.00,VWS V14.01,2013-01-13 07:53:00,
2013-01-13 01:58:00,71.3,68.9,29.88,South,179,10.5,10.5,92,0.00,,OVC034,0.00,VWS V14.01,2013-01-13 07:58:00,
2013-01-13 02:03:00,71.4,69.0,29.88,SSW,200,4.5,9.0,92,0.00,,OVC034,0.00,VWS V14.01,2013-01-13 08:03:00,
2013-01-13 02:08:00,71.4,69.0,29.88,South,186,7.5,10.5,92,0.00,,OVC034,0.00,VWS V14.01,2013-01-13 08:08:00,
2013-01-13 02:13:00,71.5,69.1,29.88,South,188,3.0,7.5,92,0.00,,OVC034,0.00,VWS V14.01,2013-01-13 08:13:00,
2013-01-13 02:18:00,71.4,69.0,29.88,South,186,3.0,6.0,92,0.00,,OVC034,0.00,VWS V14.01,2013-01-13 08:18:00,
2013-01-13 02:23:00,71.3,68.9,29.88,South,187,3.0,10.5,92,0.00,,OVC034,0.00,VWS V14.01,2013-01-13 08:23:00,
2013-01-13 02:28:00,71.3,68.9,29.88,SSW,200,1.5,10.5,92,0.00,,OVC034,0.00,VWS V14.01,2013-01-13 08:28:00,
2013-01-13 02:32:00,71.2,68.8,29.88,South,178,1.5,7.5,92,0.00,,OVC034,0.00,VWS V14.01,2013-01-13 08:32:00,
2013-01-13 02:37:00,71.1,68.7,29.88,South,190,1.5,6.0,92,0.00,,OVC034,0.00,VWS V14.01,2013-01-13 08:37:00,
2013-01-13 02:42:00,71.1,68.7,29.88,SSW,208,0.0,9.0,92,0.00,,OVC034,0.00,VWS V14.01,2013-01-13 08:42:00,
2013-01-13 02:47:00,71.1,68.7,29.87,South,191,4.5,10.5,92,0.00,,OVC034,0.00,VWS V14.01,2013-01-13 08:47:00,
2013-01-13 02:52:00,71.1,68.7,29.87,SSW,213,4.5,9.0,92,0.00,,OVC034,0.00,VWS V14.01,2013-01-13 08:52:00,
2013-01-13 02:57:00,71.2,68.8,29.87,SSW,205,4.5,12.0,92,0.00,,OVC034,0.00,VWS V14.01,2013-01-13 08:57:00,
2013-01-13 03:02:00,71.3,68.9,29.87,SSW,205,7.5,13.5,92,0.00,,OVC024,0.00,VWS V14.01,2013-01-13 09:02:00,
2013-01-13 03:07:00,71.2,68.8,29.87,SSW,213,12.0,12.0,92,0.00,,OVC024,0.00,VWS V14.01,2013-01-13 09:07:00,
2013-01-13 03:12:00,71.3,68.9,29.87,SSW,211,7.5,15.0,92,0.00,,OVC024,0.00,VWS V14.01,2013-01-13 09:12:00,
2013-01-13 03:17:00,71.3,68.9,29.87,SSW,205,4.5,10.5,92,0.00,,OVC024,0.00,VWS V14.01,2013-01-13 09:17:00,
2013-01-13 03:22:00,71.3,68.9,29.86,South,190,3.0,13.5,92,0.00,,OVC024,0.00,VWS V14.01,2013-01-13 09:22:00,
2013-01-13 03:27:00,71.3,68.9,29.86,SSW,196,7.5,13.5,92,0.00,,OVC024,0.00,VWS V14.01,2013-01-13 09:27:00,
2013-01-13 03:32:00,71.3,68.9,29.86,SW,218,4.5,9.0,92,0.00,,SCT026,0.00,VWS V14.01,2013-01-13 09:32:00,
2013-01-13 03:37:00,71.2,68.8,29.86,SW,220,13.5,15.0,92,0.00,,SCT026,0.00,VWS V14.01,2013-01-13 09:37:00,
2013-01-13 03:42:00,71.2,68.8,29.85,South,172,6.0,10.5,92,0.00,,SCT026,0.00,VWS V14.01,2013-01-13 09:42:00,
2013-01-13 03:47:00,71.2,68.8,29.85,SW,221,6.0,9.0,92,0.00,,SCT026,0.00,VWS V14.01,2013-01-13 09:47:00,
2013-01-13 03:52:00,71.2,68.8,29.85,SSW,198,7.5,15.0,92,0.00,,SCT026,0.00,VWS V14.01,2013-01-13 09:52:00,
2013-01-13 03:57:00,71.2,68.8,29.85,SSW,194,3.0,15.0,92,0.00,,SCT026,0.00,VWS V14.01,2013-01-13 09:57:00,
2013-01-13 04:02:00,71.1,68.7,29.85,SW,226,4.5,12.0,92,0.00,,SCT026,0.00,VWS V14.01,2013-01-13 10:02:00,
2013-01-13 04:07:00,71.0,68.6,29.85,South,179,6.0,13.5,92,0.00,,SCT026,0.00,VWS V14.01,2013-01-13 10:07:00,
2013-01-13 04:12:00,71.0,68.6,29.85,SSW,203,10.5,12.0,92,0.00,,SCT026,0.00,VWS V14.01,2013-01-13 10:12:00,
2013-01-13 04:17:00,70.9,68.5,29.85,SSW,200,4.5,13.5,92,0.00,,SCT026,0.00,VWS V14.01,2013-01-13 10:17:00,
2013-01-13 04:22:00,70.8,68.4,29.85,SSW,198,7.5,12.0,92,0.00,,SCT026,0.00,VWS V14.01,2013-01-13 10:22:00,
2013-01-13 04:27:00,70.7,68.3,29.84,South,190,7.5,15.0,92,0.00,,SCT026,0.00,VWS V14.01,2013-01-13 10:27:00,
2013-01-13 04:32:00,70.7,68.3,29.84,South,180,6.0,10.5,92,0.00,,BKN020,0.00,VWS V14.01,2013-01-13 10:32:00,
2013-01-13 04:37:00,70.7,68.3,29.84,SSW,209,10.5,21.0,92,0.00,,BKN020,0.00,VWS V14.01,2013-01-13 10:37:00,
2013-01-13 04:42:00,70.7,68.3,29.83,SSE,153,7.5,12.0,92,0.00,,BKN020,0.00,VWS V14.01,2013-01-13 10:42:00,
2013-01-13 04:47:00,70.7,68.3,29.83,SSW,209,15.0,16.5,92,0.00,,BKN020,0.00,VWS V14.01,2013-01-13 10:47:00,
2013-01-13 04:52:00,70.6,68.2,29.82,SW,223,7.5,13.5,92,0.00,,BKN020,0.00,VWS V14.01,2013-01-13 10:52:00,
2013-01-13 04:57:00,70.6,68.2,29.83,SW,227,13.5,27.0,92,0.00,,BKN020,0.00,VWS V14.01,2013-01-13 10:57:00,
2013-01-13 05:02:00,70.6,68.5,29.82,West,262,12.0,21.0,93,0.00,,BKN013,0.00,VWS V14.01,2013-01-13 11:02:00,
2013-01-13 05:07:00,70.7,68.6,29.82,South,188,7.5,19.5,93,0.00,,BKN013,0.00,VWS V14.01,2013-01-13 11:07:00,
2013-01-13 05:12:00,70.8,68.4,29.82,SSW,206,9.0,22.5,92,0.00,,BKN013,0.00,VWS V14.01,2013-01-13 11:12:00,
2013-01-13 05:17:00,70.8,68.4,29.81,SSE,157,10.5,18.0,92,0.00,,BKN013,0.00,VWS V14.01,2013-01-13 11:17:00,
2013-01-13 05:22:00,70.8,68.4,29.82,South,180,6.0,18.0,92,0.00,,BKN013,0.00,VWS V14.01,2013-01-13 11:22:00,
2013-01-13 05:27:00,70.9,68.5,29.81,South,185,6.0,24.0,92,0.00,,BKN013,0.00,VWS V14.01,2013-01-13 11:27:00,
2013-01-13 05:32:00,70.9,68.5,29.81,South,190,7.5,10.5,92,0.00,,BKN013,0.00,VWS V14.01,2013-01-13 11:32:00,
2013-01-13 05:37:00,70.9,68.5,29.81,SSW,195,9.0,24.0,92,0.00,,BKN013,0.00,VWS V14.01,2013-01-13 11:37:00,
2013-01-13 05:42:00,71.0,68.6,29.81,SSW,207,7.5,24.0,92,0.00,,BKN013,0.00,VWS V14.01,2013-01-13 11:42:00,
2013-01-13 05:47:00,71.0,68.6,29.82,SW,214,19.5,24.0,92,0.00,,BKN013,0.00,VWS V14.01,2013-01-13 11:47:00,
2013-01-13 05:52:00,71.1,68.7,29.81,SSW,213,9.0,16.5,92,0.00,,BKN013,0.00,VWS V14.01,2013-01-13 11:52:00,
2013-01-13 05:57:00,71.0,68.6,29.81,SSW,211,7.5,16.5,92,0.00,,BKN013,0.00,VWS V14.01,2013-01-13 11:57:00,
2013-01-13 06:02:00,71.1,68.7,29.82,SSW,196,13.5,16.5,92,0.00,,BKN013,0.00,VWS V14.01,2013-01-13 12:02:00,
2013-01-13 06:07:00,71.2,68.8,29.82,SSW,202,6.0,13.5,92,0.00,,BKN013,0.00,VWS V14.01,2013-01-13 12:07:00,
2013-01-13 06:12:00,71.2,68.4,29.82,SSW,201,3.0,13.5,91,0.00,,OVC015,0.00,VWS V14.01,2013-01-13 12:12:00,
2013-01-13 06:17:00,71.2,68.4,29.83,SSW,199,1.5,16.5,91,0.00,,OVC015,0.00,VWS V14.01,2013-01-13 12:17:00,
2013-01-13 06:22:00,71.2,68.4,29.84,SSW,198,6.0,12.0,91,0.00,,OVC015,0.00,VWS V14.01,2013-01-13 12:22:00,
2013-01-13 06:27:00,71.3,68.5,29.86,WSW,246,4.5,10.5,91,0.00,,OVC015,0.00,VWS V14.01,2013-01-13 12:27:00,
2013-01-13 06:32:00,71.4,68.6,29.86,NW,314,7.5,10.5,91,0.00,,OVC015,0.00,VWS V14.01,2013-01-13 12:32:00,
2013-01-13 06:37:00,71.3,68.5,29.87,WNW,296,3.0,10.5,91,0.00,,OVC015,0.00,VWS V14.01,2013-01-13 12:37:00,
2013-01-13 06:42:00,71.4,68.6,29.87,West,269,4.5,10.5,91,0.00,,OVC015,0.00,VWS V14.01,2013-01-13 12:42:00,
2013-01-13 06:47:00,71.4,68.6,29.87,WSW,242,3.0,4.5,91,0.00,,OVC015,0.00,VWS V14.01,2013-01-13 12:47:00,
2013-01-13 06:52:00,71.5,68.7,29.87,South,190,1.5,9.0,91,0.00,,OVC015,0.00,VWS V14.01,2013-01-13 12:52:00,
2013-01-13 06:57:00,71.5,68.7,29.87,SSW,205,4.5,6.0,91,0.00,,OVC015,0.00,VWS V14.01,2013-01-13 12:57:00,
2013-01-13 07:02:00,71.5,68.7,29.87,SSW,205,0.0,3.0,91,0.00,,OVC045,0.00,VWS V14.01,2013-01-13 13:02:00,
2013-01-13 07:07:00,71.5,68.7,29.88,WSW,255,0.0,6.0,91,0.00,,OVC045,0.00,VWS V14.01,2013-01-13 13:07:00,
2013-01-13 07:12:00,71.6,68.8,29.88,WNW,282,6.0,6.0,91,0.00,,OVC045,0.00,VWS V14.01,2013-01-13 13:12:00,
2013-01-13 07:17:00,71.7,68.9,29.88,West,272,0.0,6.0,91,0.00,,OVC045,0.00,VWS V14.01,2013-01-13 13:17:00,
2013-01-13 07:22:00,71.8,69.0,29.88,WSW,246,4.5,4.5,91,0.00,,OVC045,0.00,VWS V14.01,2013-01-13 13:22:00,
2013-01-13 07:27:00,72.0,69.2,29.89,SSW,208,6.0,7.5,91,0.00,,OVC045,0.00,VWS V14.01,2013-01-13 13:27:00,
2013-01-13 07:32:00,72.1,69.3,29.89,West,272,3.0,4.5,91,0.00,,OVC045,0.00,VWS V14.01,2013-01-13 13:32:00,
2013-01-13 07:37:00,72.2,69.4,29.90,WNW,296,0.0,6.0,91,0.00,,OVC045,0.00,VWS V14.01,2013-01-13 13:37:00,
2013-01-13 07:42:00,72.1,69.3,29.90,SW,227,0.0,4.5,91,0.00,,OVC045,0.00,VWS V14.01,2013-01-13 13:42:00,
2013-01-13 07:47:00,72.1,69.3,29.90,WSW,248,4.5,7.5,91,0.00,,OVC045,0.00,VWS V14.01,2013-01-13 13:47:00,
2013-01-13 07:52:00,72.1,69.3,29.90,WSW,251,0.0,3.0,91,0.00,,OVC045,0.00,VWS V14.01,2013-01-13 13:52:00,
2013-01-13 07:57:00,72.0,69.2,29.90,WNW,287,0.0,0.0,91,0.00,,OVC045,0.00,VWS V14.01,2013-01-13 13:57:00,
2013-01-13 08:02:00,72.0,69.2,29.90,WSW,257,0.0,4.5,91,0.00,,BKN065,0.00,VWS V14.01,2013-01-13 14:02:00,
2013-01-13 08:07:00,72.0,69.2,29.90,WSW,242,3.0,3.0,91,0.00,,BKN065,0.00,VWS V14.01,2013-01-13 14:07:00,
2013-01-13 08:12:00,72.0,69.2,29.90,WSW,239,0.0,0.0,91,0.00,,BKN065,0.00,VWS V14.01,2013-01-13 14:12:00,
2013-01-13 08:17:00,72.0,69.2,29.90,WSW,240,1.5,4.5,91,0.00,,BKN065,0.00,VWS V14.01,2013-01-13 14:17:00,
2013-01-13 08:22:00,72.1,69.7,29.90,West,270,0.0,3.0,92,0.00,,BKN065,0.00,VWS V14.01,2013-01-13 14:22:00,
2013-01-13 08:27:00,72.1,69.7,29.90,SSW,196,0.0,4.5,92,0.00,,BKN065,0.00,VWS V14.01,2013-01-13 14:27:00,
2013-01-13 08:32:00,72.1,69.7,29.90,SSW,211,1.5,4.5,92,0.00,,BKN065,0.00,VWS V14.01,2013-01-13 14:32:00,
2013-01-13 08:37:00,72.2,69.8,29.90,South,174,3.0,6.0,92,0.00,,BKN065,0.00,VWS V14.01,2013-01-13 14:37:00,
2013-01-13 08:42:00,72.3,69.8,29.90,WSW,241,7.5,7.5,92,0.00,,BKN065,0.00,VWS V14.01,2013-01-13 14:42:00,
2013-01-13 08:47:00,72.4,69.6,29.90,South,172,4.5,7.5,91,0.00,,BKN065,0.00,VWS V14.01,2013-01-13 14:47:00,
2013-01-13 08:52:00,72.4,69.6,29.90,SSW,207,6.0,6.0,91,0.00,,BKN065,0.00,VWS V14.01,2013-01-13 14:52:00,
2013-01-13 08:57:00,72.5,70.1,29.90,South,188,3.0,4.5,92,0.00,,BKN065,0.00,VWS V14.01,2013-01-13 14:57:00,
2013-01-13 09:02:00,72.6,70.2,29.90,SW,223,6.0,10.5,92,0.00,,CLR,0.00,VWS V14.01,2013-01-13 15:02:00,
2013-01-13 09:07:00,72.8,70.3,29.91,SW,219,0.0,9.0,92,0.00,,CLR,0.00,VWS V14.01,2013-01-13 15:07:00,
2013-01-13 09:12:00,72.9,70.1,29.91,SSW,205,6.0,9.0,91,0.00,,CLR,0.00,VWS V14.01,2013-01-13 15:12:00,
2013-01-13 09:17:00,73.1,70.3,29.91,South,187,1.5,9.0,91,0.00,,CLR,0.00,VWS V14.01,2013-01-13 15:17:00,
2013-01-13 09:22:00,73.2,70.4,29.91,SSW,205,1.5,6.0,91,0.00,,CLR,0.00,VWS V14.01,2013-01-13 15:22:00,
2013-01-13 09:27:00,73.3,70.5,29.91,SSW,195,3.0,9.0,91,0.00,,CLR,0.00,VWS V14.01,2013-01-13 15:27:00,
2013-01-13 09:32:00,73.4,70.6,29.91,SSW,202,3.0,9.0,91,0.00,,CLR,0.00,VWS V14.01,2013-01-13 15:32:00,
2013-01-13 09:37:00,73.5,70.4,29.91,WSW,237,15.0,15.0,90,0.00,,CLR,0.00,VWS V14.01,2013-01-13 15:37:00,
2013-01-13 09:42:00,73.6,70.5,29.91,WSW,251,10.5,10.5,90,0.00,,CLR,0.00,VWS V14.01,2013-01-13 15:42:00,
2013-01-13 09:47:00,73.7,70.6,29.91,SSW,199,9.0,9.0,90,0.00,,CLR,0.00,VWS V14.01,2013-01-13 15:47:00,
2013-01-13 09:52:00,73.8,70.7,29.91,SSW,202,10.5,13.5,90,0.00,,OVC085,0.00,VWS V14.01,2013-01-13 15:52:00,
2013-01-13 09:57:00,73.8,70.7,29.91,SSW,202,4.5,7.5,90,0.00,,OVC085,0.00,VWS V14.01,2013-01-13 15:57:00,
2013-01-13 10:02:00,73.9,70.8,29.91,SSW,198,3.0,12.0,90,0.00,,OVC025,0.00,VWS V14.01,2013-01-13 16:02:00,
2013-01-13 10:07:00,74.2,71.1,29.91,South,190,0.0,9.0,90,0.00,,OVC025,0.00,VWS V14.01,2013-01-13 16:07:00,
2013-01-13 10:12:00,74.5,71.1,29.91,SW,219,1.5,9.0,89,0.00,,OVC025,0.00,VWS V14.01,2013-01-13 16:12:00,
2013-01-13 10:17:00,74.8,71.0,29.91,SW,217,4.5,16.5,88,0.00,,OVC025,0.00,VWS V14.01,2013-01-13 16:17:00,
2013-01-13 10:22:00,75.0,71.2,29.91,SSW,209,4.5,21.0,88,0.00,,OVC025,0.00,VWS V14.01,2013-01-13 16:22:00,
2013-01-13 10:27:00,75.2,71.4,29.91,SSE,163,6.0,18.0,88,0.00,,OVC025,0.00,VWS V14.01,2013-01-13 16:27:00,
2013-01-13 10:32:00,75.4,71.3,29.91,SSW,204,3.0,19.5,87,0.00,,OVC025,0.00,VWS V14.01,2013-01-13 16:32:00,
2013-01-13 10:37:00,75.5,71.4,29.91,WSW,238,7.5,10.5,87,0.00,,OVC025,0.00,VWS V14.01,2013-01-13 16:37:00,
2013-01-13 10:42:00,75.5,71.4,29.91,SSW,194,6.0,16.5,87,0.00,,OVC025,0.00,VWS V14.01,2013-01-13 16:42:00,
2013-01-13 10:47:00,75.5,71.7,29.90,NW,308,1.5,13.5,88,0.00,,OVC025,0.00,VWS V14.01,2013-01-13 16:47:00,
2013-01-13 10:52:00,75.4,71.6,29.90,South,186,6.0,19.5,88,0.00,,OVC025,0.00,VWS V14.01,2013-01-13 16:52:00,
2013-01-13 10:57:00,75.2,71.4,29.90,NNW,328,0.0,19.5,88,0.00,,OVC025,0.00,VWS V14.01,2013-01-13 16:57:00,
2013-01-13 11:02:00,75.3,71.5,29.90,SW,219,13.5,13.5,88,0.00,,OVC031,0.00,VWS V14.01,2013-01-13 17:02:00,
2013-01-13 11:07:00,75.3,71.5,29.89,South,179,7.5,18.0,88,0.00,,OVC031,0.00,VWS V14.01,2013-01-13 17:07:00,
2013-01-13 11:12:00,75.5,71.7,29.89,WSW,238,7.5,15.0,88,0.00,,OVC031,0.00,VWS V14.01,2013-01-13 17:12:00,
2013-01-13 11:17:00,75.7,71.9,29.88,WSW,237,15.0,15.0,88,0.00,,OVC031,0.00,VWS V14.01,2013-01-13 17:17:00,
2013-01-13 11:22:00,75.8,71.7,29.89,SW,216,15.0,15.0,87,0.00,,OVC031,0.00,VWS V14.01,2013-01-13 17:22:00,
2013-01-13 11:27:00,75.9,71.8,29.88,NW,310,9.0,21.0,87,0.00,,OVC031,0.00,VWS V14.01,2013-01-13 17:27:00,
2013-01-13 11:32:00,76.1,71.6,29.88,SSW,211,6.0,16.5,86,0.00,,OVC031,0.00,VWS V14.01,2013-01-13 17:32:00,
2013-01-13 11:37:00,76.2,71.7,29.87,WSW,249,6.0,18.0,86,0.00,,OVC031,0.00,VWS V14.01,2013-01-13 17:37:00,
2013-01-13 11:42:00,76.2,72.1,29.86,SW,221,4.5,15.0,87,0.00,,OVC031,0.00,VWS V14.01,2013-01-13 17:42:00,
2013-01-13 11:47:00,76.2,71.7,29.86,SSE,156,7.5,15.0,86,0.00,,OVC031,0.00,VWS V14.01,2013-01-13 17:47:00,
2013-01-13 11:52:00,76.2,71.7,29.86,WSW,242,4.5,18.0,86,0.00,,OVC031,0.00,VWS V14.01,2013-01-13 17:52:00,
2013-01-13 11:57:00,76.2,72.1,29.85,WSW,241,15.0,15.0,87,0.00,,OVC031,0.00,VWS V14.01,2013-01-13 17:57:00,
2013-01-13 12:02:00,76.2,71.7,29.85,South,170,6.0,22.5,86,0.00,,OVC032,0.00,VWS V14.01,2013-01-13 18:02:00,
2013-01-13 12:07:00,76.3,71.8,29.85,SSW,196,18.0,27.0,86,0.00,,OVC032,0.00,VWS V14.01,2013-01-13 18:07:00,
2013-01-13 12:12:00,76.4,71.6,29.84,SSW,198,9.0,30.0,85,0.00,,OVC032,0.00,VWS V14.01,2013-01-13 18:12:00,
2013-01-13 12:17:00,76.4,71.6,29.84,SSW,204,15.0,15.0,85,0.00,,OVC032,0.00,VWS V14.01,2013-01-13 18:17:00,
2013-01-13 12:22:00,76.4,71.6,29.84,SW,221,3.0,19.5,85,0.00,,OVC032,0.00,VWS V14.01,2013-01-13 18:22:00,
2013-01-13 12:27:00,76.4,71.6,29.84,SW,214,3.0,13.5,85,0.00,,OVC032,0.00,VWS V14.01,2013-01-13 18:27:00,
2013-01-13 12:32:00,76.3,71.8,29.84,SSW,202,4.5,16.5,86,0.00,,OVC032,0.00,VWS V14.01,2013-01-13 18:32:00,
2013-01-13 12:37:00,76.1,71.6,29.83,SW,226,12.0,19.5,86,0.00,,OVC032,0.00,VWS V14.01,2013-01-13 18:37:00,
2013-01-13 12:42:00,75.9,71.4,29.83,SSW,211,7.5,19.5,86,0.00,,OVC032,0.00,VWS V14.01,2013-01-13 18:42:00,
2013-01-13 12:47:00,75.9,71.4,29.83,SSW,198,1.5,18.0,86,0.00,,OVC032,0.00,VWS V14.01,2013-01-13 18:47:00,
2013-01-13 12:52:00,76.0,71.5,29.83,SW,215,6.0,16.5,86,0.00,,OVC032,0.00,VWS V14.01,2013-01-13 18:52:00,
2013-01-13 12:57:00,76.1,71.6,29.83,WSW,238,4.5,10.5,86,0.00,,OVC032,0.00,VWS V14.01,2013-01-13 18:57:00,
2013-01-13 13:02:00,76.1,71.6,29.83,WSW,238,7.5,21.0,86,0.00,,OVC031,0.00,VWS V14.01,2013-01-13 19:02:00,
2013-01-13 13:07:00,76.2,71.7,29.82,SSE,163,15.0,21.0,86,0.00,,OVC031,0.00,VWS V14.01,2013-01-13 19:07:00,
2013-01-13 13:12:00,76.3,71.5,29.82,NW,306,16.5,24.0,85,0.00,,OVC031,0.00,VWS V14.01,2013-01-13 19:12:00,
2013-01-13 13:17:00,76.5,71.7,29.82,SSW,202,10.5,13.5,85,0.00,,OVC031,0.00,VWS V14.01,2013-01-13 19:17:00,
2013-01-13 13:22:00,76.6,71.8,29.82,SW,224,9.0,19.5,85,0.00,,OVC031,0.00,VWS V14.01,2013-01-13 19:22:00,
2013-01-13 13:27:00,76.7,71.9,29.82,SW,220,7.5,18.0,85,0.00,,OVC031,0.00,VWS V14.01,2013-01-13 19:27:00,
2013-01-13 13:32:00,76.7,71.5,29.82,SSW,203,6.0,22.5,84,0.00,, +RA,0.00,VWS V14.01,2013-01-13 19:32:00,
2013-01-13 13:37:00,76.6,71.8,29.82,SSW,205,16.5,24.0,85,0.00,, +RA,0.00,VWS V14.01,2013-01-13 19:37:00,
2013-01-13 13:42:00,76.6,71.8,29.82,West,281,10.5,19.5,85,0.00,, +RA,0.00,VWS V14.01,2013-01-13 19:42:00,
2013-01-13 13:47:00,76.6,71.8,29.82,SW,215,4.5,24.0,85,0.00,, +RA,0.00,VWS V14.01,2013-01-13 19:47:00,
2013-01-13 13:52:00,76.5,71.7,29.82,WNW,301,10.5,13.5,85,0.00,,RA,0.00,VWS V14.01,2013-01-13 19:52:00,
2013-01-13 13:57:00,76.5,72.0,29.83,SSW,208,16.5,21.0,86,0.00,,RA,0.00,VWS V14.01,2013-01-13 19:57:00,
2013-01-13 14:02:00,76.4,71.9,29.84,NNW,331,10.5,18.0,86,0.00,,RA,0.00,VWS V14.01,2013-01-13 20:02:00,
2013-01-13 14:07:00,69.2,63.1,29.87,North,355,19.5,25.5,81,0.00,,RA,0.00,VWS V14.01,2013-01-13 20:07:00,
2013-01-13 14:12:00,63.6,59.7,29.86,NNW,331,10.5,28.5,87,0.01,,-RA,0.01,VWS V14.01,2013-01-13 20:12:00,
2013-01-13 14:17:00,61.4,58.8,29.88,North,360,10.5,18.0,91,0.06,,-RA,0.06,VWS V14.01,2013-01-13 20:17:00,
2013-01-13 14:22:00,60.5,58.5,29.87,NNW,344,16.5,16.5,93,0.16,,-RA,0.16,VWS V14.01,2013-01-13 20:22:00,
2013-01-13 14:27:00,60.2,58.2,29.88,North,355,12.0,21.0,93,0.20,,-RA,0.20,VWS V14.01,2013-01-13 20:27:00,
2013-01-13 14:32:00,59.9,58.2,29.89,North,5,3.0,15.0,94,0.28,,-RA,0.28,VWS V14.01,2013-01-13 20:32:00,
2013-01-13 14:37:00,59.7,58.0,29.89,NNW,329,6.0,12.0,94,0.33,,-RA,0.33,VWS V14.01,2013-01-13 20:37:00,
2013-01-13 14:42:00,59.6,57.9,29.89,North,355,10.5,10.5,94,0.39,,OVC024,0.39,VWS V14.01,2013-01-13 20:42:00,
2013-01-13 14:47:00,59.5,57.8,29.89,NNE,15,7.5,7.5,94,0.41,,OVC024,0.41,VWS V14.01,2013-01-13 20:47:00,
2013-01-13 14:52:00,59.5,57.8,29.89,NNW,340,4.5,9.0,94,0.46,,OVC024,0.46,VWS V14.01,2013-01-13 20:52:00,
2013-01-13 14:57:00,59.5,57.8,29.89,North,351,3.0,9.0,94,0.46,,OVC024,0.46,VWS V14.01,2013-01-13 20:57:00,
2013-01-13 15:02:00,59.5,57.8,29.91,NNW,332,4.5,10.5,94,0.46,,-RA,0.46,VWS V14.01,2013-01-13 21:02:00,
2013-01-13 15:07:00,59.5,57.8,29.91,North,351,7.5,15.0,94,0.46,,-RA,0.46,VWS V14.01,2013-01-13 21:07:00,
2013-01-13 15:12:00,59.3,57.6,29.91,NNW,338,4.5,10.5,94,0.46,,-RA,0.47,VWS V14.01,2013-01-13 21:12:00,
2013-01-13 15:17:00,59.2,57.5,29.92,NNW,337,7.5,9.0,94,0.43,,-RA,0.47,VWS V14.01,2013-01-13 21:17:00,
2013-01-13 15:22:00,59.0,57.3,29.92,NNW,342,4.5,10.5,94,0.32,,-RA,0.47,VWS V14.01,2013-01-13 21:22:00,
2013-01-13 15:27:00,58.8,57.1,29.92,NW,305,4.5,16.5,94,0.27,,-RA,0.47,VWS V14.01,2013-01-13 21:27:00,
2013-01-13 15:32:00,58.6,56.9,29.93,NNE,24,7.5,13.5,94,0.21,,-RA,0.48,VWS V14.01,2013-01-13 21:32:00,
2013-01-13 15:37:00,58.6,56.9,29.93,WNW,303,3.0,13.5,94,0.17,,-RA,0.48,VWS V14.01,2013-01-13 21:37:00,
2013-01-13 15:42:00,58.3,56.6,29.93,NW,320,10.5,15.0,94,0.09,,-RA,0.48,VWS V14.01,2013-01-13 21:42:00,
2013-01-13 15:47:00,57.9,56.2,29.94,NNE,24,7.5,12.0,94,0.07,,-RA,0.48,VWS V14.01,2013-01-13 21:47:00,
2013-01-13 15:52:00,57.7,55.7,29.95,NNE,28,1.5,13.5,93,0.02,,-RA,0.48,VWS V14.01,2013-01-13 21:52:00,
2013-01-13 15:57:00,57.6,55.9,29.96,NNE,22,3.0,9.0,94,0.02,,-RA,0.48,VWS V14.01,2013-01-13 21:57:00,
2013-01-13 16:02:00,57.6,55.9,29.96,NNE,26,1.5,12.0,94,0.02,,OVC031,0.48,VWS V14.01,2013-01-13 22:02:00,
2013-01-13 16:07:00,57.0,55.0,29.95,NNE,19,24.0,24.0,93,0.02,,OVC031,0.48,VWS V14.01,2013-01-13 22:07:00,
2013-01-13 16:12:00,56.3,54.0,29.96,NNW,333,9.0,9.0,92,0.01,,OVC031,0.48,VWS V14.01,2013-01-13 22:12:00,
2013-01-13 16:17:00,56.0,54.0,29.96,NE,43,3.0,7.5,93,0.01,,OVC031,0.48,VWS V14.01,2013-01-13 22:17:00,
2013-01-13 16:22:00,55.8,53.8,29.96,North,5,6.0,13.5,93,0.01,,OVC031,0.48,VWS V14.01,2013-01-13 22:22:00,
2013-01-13 16:27:00,55.5,53.8,29.96,NNE,30,3.0,6.0,94,0.01,,OVC031,0.48,VWS V14.01,2013-01-13 22:27:00,
2013-01-13 16:32:00,55.4,53.7,29.97,NE,53,1.5,7.5,94,0.00,,OVC031,0.48,VWS V14.01,2013-01-13 22:32:00,
2013-01-13 16:37:00,55.3,53.6,29.97,NNE,20,3.0,7.5,94,0.01,,OVC031,0.49,VWS V14.01,2013-01-13 22:37:00,
2013-01-13 16:42:00,55.3,53.6,29.97,NNE,30,6.0,6.0,94,0.01,,-RA,0.49,VWS V14.01,2013-01-13 22:42:00,
2013-01-13 16:47:00,55.0,53.3,29.97,ENE,57,6.0,7.5,94,0.01,,-RA,0.49,VWS V14.01,2013-01-13 22:47:00,
2013-01-13 16:52:00,54.8,53.1,29.97,NE,38,6.0,9.0,94,0.01,,RA,0.49,VWS V14.01,2013-01-13 22:52:00,
2013-01-13 16:57:00,54.6,52.9,29.98,NE,53,3.0,7.5,94,0.01,,RA,0.49,VWS V14.01,2013-01-13 22:57:00,
2013-01-13 17:02:00,54.4,52.7,29.98,ENE,62,1.5,9.0,94,0.01,,-RA,0.49,VWS V14.01,2013-01-13 23:02:00,
2013-01-13 17:07:00,54.2,52.5,29.98,ENE,67,0.0,6.0,94,0.01,,-RA,0.49,VWS V14.01,2013-01-13 23:07:00,
2013-01-13 17:12:00,54.1,52.4,29.99,NE,44,0.0,12.0,94,0.01,,-RA,0.49,VWS V14.01,2013-01-13 23:12:00,
2013-01-13 17:17:00,53.9,52.2,30.00,NE,47,0.0,12.0,94,0.02,,-RA,0.50,VWS V14.01,2013-01-13 23:17:00,
2013-01-13 17:22:00,53.9,52.2,30.01,North,11,6.0,10.5,94,0.02,,-RA,0.50,VWS V14.01,2013-01-13 23:22:00,
2013-01-13 17:27:00,53.8,52.1,30.01,NNE,24,9.0,10.5,94,0.02,,-RA,0.50,VWS V14.01,2013-01-13 23:27:00,
2013-01-13 17:32:00,53.7,52.0,30.01,North,10,1.5,12.0,94,0.02,,-RA,0.50,VWS V14.01,2013-01-13 23:32:00,
2013-01-13 17:37:00,53.5,51.8,30.01,East,80,3.0,10.5,94,0.03,,-RA,0.51,VWS V14.01,2013-01-13 23:37:00,
2013-01-13 17:42:00,53.5,51.8,30.02,NNE,27,4.5,10.5,94,0.03,,-RA,0.52,VWS V14.01,2013-01-13 23:42:00,
2013-01-13 17:47:00,53.3,51.6,30.02,NE,41,0.0,9.0,94,0.05,,-RA,0.54,VWS V14.01,2013-01-13 23:47:00,
2013-01-13 17:52:00,53.2,51.5,30.01,ENE,65,3.0,7.5,94,0.06,,-RA,0.55,VWS V14.01,2013-01-13 23:52:00,
2013-01-13 17:57:00,53.2,51.5,30.00,ENE,67,1.5,6.0,94,0.06,,-RA,0.55,VWS V14.01,2013-01-13 23:57:00,
2013-01-13 18:02:00,53.1,51.4,30.01,North,11,6.0,9.0,94,0.07,,RA,0.56,VWS V14.01,2013-01-14 00:02:00,
2013-01-13 18:07:00,53.0,51.3,30.01,NE,43,0.0,7.5,94,0.07,,RA,0.56,VWS V14.01,2013-01-14 00:07:00,
2013-01-13 18:12:00,52.8,51.1,30.01,NE,53,3.0,12.0,94,0.08,,RA,0.57,VWS V14.01,2013-01-14 00:12:00,
2013-01-13 18:17:00,52.7,51.0,30.00,ENE,60,0.0,7.5,94,0.08,,RA,0.58,VWS V14.01,2013-01-14 00:17:00,
2013-01-13 18:22:00,52.6,50.9,30.02,NE,53,3.0,6.0,94,0.08,,RA,0.58,VWS V14.01,2013-01-14 00:22:00,
2013-01-13 18:27:00,52.6,51.2,30.02,ENE,65,0.0,3.0,95,0.11,,RA,0.61,VWS V14.01,2013-01-14 00:27:00,
2013-01-13 18:31:00,52.5,51.1,30.02,ENE,59,1.5,4.5,95,0.14,,OVC110,0.64,VWS V14.01,2013-01-14 00:31:00,
2013-01-13 18:36:00,52.5,51.1,30.01,NE,45,3.0,3.0,95,0.15,,OVC110,0.66,VWS V14.01,2013-01-14 00:36:00,
2013-01-13 18:41:00,52.4,51.0,30.01,NE,46,3.0,7.5,95,0.15,,OVC110,0.67,VWS V14.01,2013-01-14 00:41:00,
2013-01-13 18:46:00,52.4,51.0,30.00,ENE,59,6.0,6.0,95,0.14,,OVC110,0.68,VWS V14.01,2013-01-14 00:46:00,
2013-01-13 18:51:00,52.3,50.9,30.01,NE,36,3.0,7.5,95,0.16,,OVC110,0.70,VWS V14.01,2013-01-14 00:51:00,
2013-01-13 18:56:00,52.2,50.8,30.01,NNE,32,4.5,13.5,95,0.15,,OVC110,0.70,VWS V14.01,2013-01-14 00:56:00,
2013-01-13 19:01:00,52.1,50.7,30.02,ENE,60,1.5,7.5,95,0.15,,-RA,0.71,VWS V14.01,2013-01-14 01:01:00,
2013-01-13 19:06:00,51.9,50.5,30.03,East,101,1.5,7.5,95,0.16,,-RA,0.72,VWS V14.01,2013-01-14 01:06:00,
2013-01-13 19:11:00,51.8,50.4,30.03,NE,51,0.0,7.5,95,0.15,,-RA,0.72,VWS V14.01,2013-01-14 01:11:00,
2013-01-13 19:16:00,51.7,50.0,30.04,NNE,26,0.0,12.0,94,0.14,,-RA,0.72,VWS V14.01,2013-01-14 01:16:00,
2013-01-13 19:21:00,51.7,50.0,30.04,NNE,32,1.5,10.5,94,0.14,,-RA,0.72,VWS V14.01,2013-01-14 01:21:00,
2013-01-13 19:26:00,51.6,49.9,30.04,NE,49,0.0,9.0,94,0.12,,-RA,0.72,VWS V14.01,2013-01-14 01:26:00,
2013-01-13 19:31:00,51.4,49.7,30.04,NNE,15,1.5,7.5,94,0.08,,-RA,0.72,VWS V14.01,2013-01-14 01:31:00,
2013-01-13 19:36:00,51.3,49.6,30.03,ENE,75,0.0,6.0,94,0.06,,-RA,0.72,VWS V14.01,2013-01-14 01:36:00,
2013-01-13 19:41:00,51.2,49.5,30.03,ENE,76,0.0,4.5,94,0.05,,-RA,0.72,VWS V14.01,2013-01-14 01:41:00,
2013-01-13 19:46:00,51.1,49.4,30.04,NE,49,0.0,7.5,94,0.04,,-RA,0.72,VWS V14.01,2013-01-14 01:46:00,
2013-01-13 19:51:00,51.1,49.4,30.04,East,87,3.0,4.5,94,0.02,,-RA,0.72,VWS V14.01,2013-01-14 01:51:00,
2013-01-13 19:56:00,51.0,49.3,30.03,NE,46,6.0,6.0,94,0.02,,-RA,0.72,VWS V14.01,2013-01-14 01:56:00,
2013-01-13 20:01:00,51.0,49.3,30.03,ENE,66,4.5,7.5,94,0.01,,OVC008,0.72,VWS V14.01,2013-01-14 02:01:00,
2013-01-13 20:06:00,50.9,49.2,30.03,East,95,9.0,12.0,94,0.00,,OVC008,0.72,VWS V14.01,2013-01-14 02:06:00,
2013-01-13 20:11:00,50.9,49.2,30.03,East,84,0.0,1.5,94,0.00,,-RA,0.72,VWS V14.01,2013-01-14 02:11:00,
2013-01-13 20:16:00,50.8,49.1,30.03,ENE,61,3.0,10.5,94,0.00,,-RA,0.72,VWS V14.01,2013-01-14 02:16:00,
2013-01-13 20:21:00,50.7,49.0,30.04,North,355,3.0,6.0,94,0.00,,-RA,0.72,VWS V14.01,2013-01-14 02:21:00,
2013-01-13 20:26:00,50.6,48.9,30.04,East,81,0.0,10.5,94,0.00,,-RA,0.72,VWS V14.01,2013-01-14 02:26:00,
2013-01-13 20:31:00,50.6,48.9,30.03,NE,53,3.0,7.5,94,0.00,,-RA,0.72,VWS V14.01,2013-01-14 02:31:00,
2013-01-13 20:36:00,50.5,48.8,30.03,East,82,9.0,10.5,94,0.00,,-RA,0.72,VWS V14.01,2013-01-14 02:36:00,
2013-01-13 20:41:00,50.4,48.7,30.03,NE,42,3.0,6.0,94,0.00,,-RA,0.72,VWS V14.01,2013-01-14 02:41:00,
2013-01-13 20:46:00,50.4,48.7,30.03,ENE,57,1.5,12.0,94,0.00,,-RA,0.72,VWS V14.01,2013-01-14 02:46:00,
2013-01-13 20:51:00,50.4,48.7,30.02,ENE,76,6.0,10.5,94,0.00,,-RA,0.72,VWS V14.01,2013-01-14 02:51:00,
2013-01-13 20:56:00,50.4,48.7,30.03,ENE,78,0.0,9.0,94,0.00,,-RA,0.72,VWS V14.01,2013-01-14 02:56:00,
2013-01-13 21:01:00,50.4,48.7,30.03,NE,49,13.5,13.5,94,0.00,,RA,0.72,VWS V14.01,2013-01-14 03:01:00,
2013-01-13 21:06:00,50.3,48.6,30.05,East,81,0.0,4.5,94,0.00,,RA,0.72,VWS V14.01,2013-01-14 03:06:00,
2013-01-13 21:11:00,50.4,48.7,30.06,East,80,3.0,3.0,94,0.00,,RA,0.72,VWS V14.01,2013-01-14 03:11:00,
2013-01-13 21:16:00,50.3,48.6,30.05,ENE,67,6.0,7.5,94,0.00,,RA,0.72,VWS V14.01,2013-01-14 03:16:00,
2013-01-13 21:21:00,50.3,48.6,30.04,ENE,67,3.0,6.0,94,0.01,,RA,0.73,VWS V14.01,2013-01-14 03:21:00,
2013-01-13 21:26:00,50.2,48.5,30.04,ENE,74,4.5,6.0,94,0.03,,RA,0.75,VWS V14.01,2013-01-14 03:26:00,
2013-01-13 21:31:00,50.0,48.3,30.05,East,84,3.0,6.0,94,0.04,,-RA,0.76,VWS V14.01,2013-01-14 03:31:00,
2013-01-13 21:36:00,49.7,48.0,30.04,ENE,74,0.0,12.0,94,0.04,,-RA,0.76,VWS V14.01,2013-01-14 03:36:00,
2013-01-13 21:41:00,49.5,47.8,30.04,East,91,7.5,10.5,94,0.04,,-RA,0.76,VWS V14.01,2013-01-14 03:41:00,
2013-01-13 21:46:00,49.4,47.8,30.05,ENE,69,4.5,12.0,94,0.04,,-RA,0.76,VWS V14.01,2013-01-14 03:46:00,
2013-01-13 21:51:00,49.3,47.7,30.05,ENE,63,3.0,12.0,94,0.04,,-RA,0.76,VWS V14.01,2013-01-14 03:51:00,
2013-01-13 21:56:00,49.3,47.7,30.04,NE,56,3.0,9.0,94,0.04,,-RA,0.76,VWS V14.01,2013-01-14 03:56:00,
2013-01-13 22:01:00,49.2,47.5,30.04,East,97,4.5,7.5,94,0.04,,RA,0.76,VWS V14.01,2013-01-14 04:01:00,
2013-01-13 22:06:00,49.2,47.5,30.05,ENE,71,7.5,7.5,94,0.04,,RA,0.76,VWS V14.01,2013-01-14 04:06:00,
2013-01-13 22:11:00,49.2,47.5,30.07,ENE,61,7.5,7.5,94,0.04,,RA,0.76,VWS V14.01,2013-01-14 04:11:00,
2013-01-13 22:16:00,49.2,47.5,30.08,NNE,20,3.0,9.0,94,0.05,,RA,0.77,VWS V14.01,2013-01-14 04:16:00,
2013-01-13 22:21:00,49.2,47.5,30.07,NNE,22,6.0,6.0,94,0.05,,RA,0.77,VWS V14.01,2013-01-14 04:21:00,
2013-01-13 22:26:00,49.2,47.5,30.07,NE,44,4.5,4.5,94,0.03,,RA,0.77,VWS V14.01,2013-01-14 04:26:00,
2013-01-13 22:31:00,49.1,47.5,30.07,NE,40,0.0,6.0,94,0.01,,RA,0.77,VWS V14.01,2013-01-14 04:31:00,
2013-01-13 22:36:00,49.0,47.6,30.07,NNE,15,1.5,7.5,95,0.01,,RA,0.77,VWS V14.01,2013-01-14 04:36:00,
2013-01-13 22:41:00,48.9,47.5,30.07,NE,49,1.5,7.5,95,0.01,,,0.77,VWS V14.01,2013-01-14 04:41:00,
2013-01-13 22:46:00,48.9,47.5,30.06,ENE,62,0.0,7.5,95,0.01,,,0.77,VWS V14.01,2013-01-14 04:46:00,
2013-01-13 22:51:00,48.7,47.3,30.06,ENE,74,3.0,7.5,95,0.01,,,0.77,VWS V14.01,2013-01-14 04:51:00,
2013-01-13 22:56:00,48.6,47.2,30.05,ENE,61,1.5,7.5,95,0.02,,,0.78,VWS V14.01,2013-01-14 04:56:00,
2013-01-13 23:00:00,48.6,47.0,30.05,ENE,71,10.5,10.5,94,0.02,,,0.78,VWS V14.01,2013-01-14 05:00:00,
2013-01-13 23:01:00,48.5,46.9,30.05,NE,54,6.0,13.5,94,0.02,,-RA,0.78,VWS V14.01,2013-01-14 05:01:00,
2013-01-13 23:02:00,48.5,46.9,30.05,NE,55,1.5,13.5,94,0.02,,-RA,0.78,VWS V14.01,2013-01-14 05:02:00,
2013-01-13 23:07:00,48.6,47.2,30.06,NE,51,4.5,6.0,95,0.02,,-RA,0.78,VWS V14.01,2013-01-14 05:07:00,
2013-01-13 23:12:00,48.5,47.1,30.06,NE,49,4.5,6.0,95,0.02,,-RA,0.78,VWS V14.01,2013-01-14 05:12:00,
2013-01-13 23:17:00,48.5,47.1,30.06,NE,55,3.0,6.0,95,0.01,,-RA,0.78,VWS V14.01,2013-01-14 05:17:00,
2013-01-13 23:22:00,48.5,47.1,30.07,ENE,58,3.0,7.5,95,0.01,,-RA,0.78,VWS V14.01,2013-01-14 05:22:00,
2013-01-13 23:27:00,48.4,47.0,30.06,East,84,1.5,7.5,95,0.01,,-RA,0.78,VWS V14.01,2013-01-14 05:27:00,
2013-01-13 23:32:00,48.5,47.1,30.06,ENE,74,0.0,7.5,95,0.01,,-RA,0.78,VWS V14.01,2013-01-14 05:32:00,
2013-01-13 23:37:00,48.4,46.8,30.06,ENE,60,3.0,10.5,94,0.01,,-RA,0.78,VWS V14.01,2013-01-14 05:37:00,
2013-01-13 23:42:00,48.4,46.8,30.06,ENE,67,0.0,6.0,94,0.01,,OVC070,0.78,VWS V14.01,2013-01-14 05:42:00,
2013-01-13 23:47:00,48.4,47.0,30.07,NE,52,3.0,6.0,95,0.01,,OVC070,0.78,VWS V14.01,2013-01-14 05:47:00,
2013-01-13 23:52:00,48.4,46.8,30.07,NNE,27,3.0,4.5,94,0.01,,-RA,0.78,VWS V14.01,2013-01-14 05:52:00,
2013-01-13 23:57:00,48.3,46.7,30.08,North,9,6.0,6.0,94,0.00,,-RA,0.78,VWS V14.01,2013-01-14 05:57:00,